Dewpoint
47 47 47 47 47 47 48 48 48 48 48 47 47 46 46 47 48 46 44 48 46 44 37 37 37 36 37 37 34 35 33 34 33 34 36 38 33 26 21 19 21 23 26 26 25 26 27 21 22 20 32 30 28 27
45 46 46 46 46 46 46 46 46 46 46 46 46 46 47 46 46 46 40 43 45 41 40 41 40 41 40 40 38 37 38 35 35 36 37 35 37 32 26 25 23 22 22 27 22 23 30 25 28 32 29 27 30 31
43 44 45 45 45 45 46 46 46 46 46 46 46 46 46 45 46 45 42 44 42 42 40 40 38 40 41 42 43 39 38 37 38 43 41 42 39 32 32 27 26 24 24 26 25 20 23 25 26 30 30 30 30 30
43 44 44 45 45 45 44 45 46 46 45 46 46 45 45 45 46 44 41 44 43 42 37 38 38 39 40 41 40 42 41 43 42 41 44 38 39 35 35 32 25 25 26 25 24 23 24 26 26 29 30 30 30 30
41 42 44 44 44 44 44 44 45 45 46 45 45 45 45 44 44 44 42 43 44 43 38 39 39 39 40 40 40 40 41 40 37 43 38 40 39 38 37 34 30 25 24 26 26 32 32 31 32 30 32 31 30 30
41 41 44 45 45 44 45 45 45 45 46 45 45 44 44 44 45 42 47 41 43 40 42 39 38 37 39 39 39 39 39 38 39 44 44 40 36 38 40 32 23 21 23 25 33 35 35 36 33 32 32 32 31 32
42 43 44 44 44 45 45 45 46 45 45 44 44 44 44 43 42 41 39 41 41 45 39 38 37 36 37 37 37 37 38 37 39 43 44 39 33 37 42 34 20 21 25 27 32 34 34 33 31 31 32 32 33 33
43 44 44 44 44 44 44 45 45 45 44 44 44 43 43 43 44 38 38 41 42 40 41 39 34 37 37 38 39 37 38 41 42 42 41 39 35 39 36 28 23 25 28 29 30 31 34 35 34 33 33 33 33 32
43 43 43 43 43 44 44 44 44 44 44 44 44 45 42 42 43 36 41 41 44 39 40 37 32 33 35 39 39 39 38 37 39 41 36 34 35 34 28 25 26 27 31 32 31 30 33 36 35 34 33 33 32 32
41 41 42 42 43 43 42 42 42 42 41 40 38 37 35 40 39 40 37 40 40 43 41 35 33 34 34 36 37 38 41 36 34 32 34 35 28 27 23 25 28 31 33 35 36 35 34 35 35 34 33 32 32 32
41 42 42 42 42 42 42 41 41 40 39 37 38 37 36 35 37 37 35 35 36 32 36 34 32 33 35 35 33 33 35 32 28 30 28 29 25 27 30 31 34 34 36 38 38 37 38 35 34 34 33 33 32 34
41 43 43 42 42 41 41 40 41 38 37 37 35 36 33 31 36 32 27 26 25 25 31 33 34 34 36 36 35 36 29 30 23 31 32 26 30 27 31 33 32 34 36 37 37 34 36 33 34 35 36 34 33 33
42 42 41 41 41 42 41 40 39 39 38 33 31 31 31 29 33 22 22 23 28 29 32 34 35 35 35 34 33 32 30 30 31 31 26 28 28 28 32 32 34 35 35 35 35 33 33 33 34 34 32 32 32 29
41 41 41 41 40 39 39 38 36 34 32 31 31 28 30 26 23 24 26 29 30 31 32 34 35 34 35 32 31 26 28 29 26 26 23 30 32 34 34 34 34 34 34 35 32 32 32 32 32 32 31 30 28 27
39 38 38 38 38 37 35 36 36 34 30 27 29 26 25 30 32 34 34 33 33 33 34 35 35 33 31 30 29 26 25 23 22 24 34 35 35 35 34 34 33 32 32 33 32 32 31 30 30 29 29 30 28 27
39 36 34 37 38 38 38 34 34 33 30 27 26 28 30 32 34 34 34 34 33 33 32 32 29 27 27 27 24 24 20 17 27 34 35 35 34 34 33 33 33 33 32 32 31 30 29 29 28 28 28 27 27 26
37 31 37 37 38 38 38 35 35 39 28 25 28 30 31 32 34 36 34 34 34 33 34 30 23 22 28 23 21 25 27 30 32 35 34 34 34 34 33 32 32 32 31 31 30 29 29 28 27 26 26 25 25 25
32 34 36 37 37 38 36 36 35 28 23 24 29 30 31 34 34 35 35 36 35 32 30 28 32 25 24 18 21 30 32 34 34 33 33 34 34 34 32 32 32 31 31 31 30 28 28 27 26 25 25 24 24 23
34 33 34 35 37 38 35 34 33 27 25 26 27 29 31 31 31 33 33 34 35 34 32 31 26 24 23 32 32 34 34 35 34 34 32 33 34 34 33 33 32 31 31 30 29 28 28 27 26 26 25 24 23 23
34 34 33 35 38 35 31 30 29 22 23 25 24 25 26 27 28 31 28 28 28 29 31 25 25 28 33 35 36 36 36 35 33 32 32 34 36 34 34 34 33 32 31 30 30 30 28 27 26 26 26 25 25 25
33 31 33 33 31 30 27 29 25 22 20 22 23 22 23 23 24 25 25 24 26 24 23 25 26 30 36 37 37 36 36 35 33 30 30 29 33 36 35 35 34 33 31 31 31 30 28 28 27 26 32 34 30 29
30 31 30 28 25 24 22 21 25 27 22 20 19 18 20 23 22 20 19 20 19 19 21 22 23 25 26 26 29 27 28 28 30 29 29 30 29 31 35 35 34 34 33 33 32 33 31 29 28 28 33 35 29 30
30 30 25 26 23 21 18 21 14 18 16 16 17 14 16 17 18 19 20 18 20 23 23 21 20 20 20 21 21 21 22 22 24 25 26 28 29 30 32 34 35 35 34 35 33 33 34 31 30 36 34 32 30 33
29 25 24 21 17 19 18 17 14 12 12 14 15 8 9 15 17 16 13 15 19 23 20 20 23 21 21 23 25 26 30 29 28 29 30 30 29 28 29 33 34 37 36 35 34 34 34 35 34 32 34 31 29 30
17 17 19 18 19 18 16 16 11 12 12 12 12 12 18 19 17 13 12 12 18 21 23 24 25 25 23 23 25 26 30 31 30 30 32 31 32 34 32 29 32 35 38 38 35 34 34 34 33 33 31 30 28 29
12 16 12 15 17 15 14 15 16 15 14 12 9 13 18 18 12 10 8 17 24 26 31 28 26 23 23 26 26 27 29 32 32 31 33 37 37 34 32 31 31 34 38 38 37 34 33 33 32 32 31 30 29 31
9 9 9 13 12 12 15 15 12 15 14 14 14 17 16 10 11 9 18 23 23 25 27 29 29 25 23 23 25 26 28 30 30 29 32 33 35 37 37 35 34 36 39 38 37 35 34 33 32 32 32 32 32 31
9 9 13 15 15 14 16 15 16 15 12 11 14 14 12 11 11 17 21 25 25 23 23 24 25 24 23 24 25 26 27 30 31 31 30 33 35 35 35 35 36 32 36 38 36 35 34 34 33 32 32 32 32 33
14 10 14 15 14 14 15 15 14 11 13 14 18 16 16 16 24 25 26 24 23 24 23 24 26 28 23 23 25 27 28 28 26 32 32 32 31 33 33 33 35 35 35 34 33 33 34 34 34 33 33 33 33 34
14 10 13 13 11 10 19 17 19 23 18 18 20 18 15 19 24 27 26 25 27 33 34 34 34 33 32 32 32 32 35 35 34 33 30 29 29 31 33 35 33 34 35 34 34 35 32 32 32 32 32 32 33 33
13 16 14 12 13 19 25 27 28 24 25 24 28 24 18 21 24 23 22 25 28 33 32 32 32 33 32 32 32 31 31 34 32 33 32 31 31 34 34 34 34 34 33 33 33 33 33 33 33 33 32 32 32 32
20 17 15 11 16 23 24 25 24 23 22 21 21 23 23 22 18 20 29 32 31 30 29 31 29 30 32 32 32 33 30 34 31 31 32 31 32 34 33 33 34 33 33 32 33 33 33 32 32 33 33 33 33 33
19 19 19 17 16 16 21 20 14 15 18 18 20 21 21 19 14 25 28 30 29 29 28 28 28 28 27 27 28 28 28 30 30 27 27 29 29 30 33 34 33 33 32 33 32 32 32 32 32 32 32 32 32 33
Lifted_Index
4 4 4 3 3 4 5 5 5 5 5 4 4 5 7 8 8 6 5 5 5 5 6 7 7 6 5 4 4 5 6 6 6 6 5 5 6 6 6 6 6 6 5 5 5 5 6 7 8 7 7 7 8 8
6 6 5 5 5 6 6 5 5 5 5 5 6 7 8 9 8 7 6 6 6 6 6 7 7 7 6 5 5 5 6 6 6 6 6 5 6 6 6 6 6 6 6 6 6 6 7 8 8 8 8 8 8 8
8 8 8 8 8 9 8 6 5 6 6 7 8 9 9 9 8 7 6 6 6 6 6 7 7 8 8 8 7 6 6 6 6 6 6 6 6 6 6 6 7 7 8 7 7 7 8 8 8 8 9 9 9 9
10 10 9 10 11 11 10 8 8 8 9 9 9 9 9 9 8 7 7 6 6 6 6 7 8 9 9 9 8 8 7 7 7 7 7 7 7 7 7 6 7 7 8 8 8 8 8 8 8 8 9 9 9 9
11 11 10 11 11 11 11 11 10 10 11 11 10 9 9 9 8 7 7 7 6 6 6 7 8 9 9 9 9 8 8 8 7 7 7 7 7 7 7 7 7 7 7 7 7 7 7 8 8 8 9 9 10 10
11 11 11 11 11 12 12 12 12 11 11 11 10 9 9 8 7 6 6 7 7 6 5 5 7 8 9 9 9 8 8 8 7 7 7 8 8 7 7 7 7 8 8 8 8 8 8 8 9 9 9 10 10 10
12 11 11 11 11 12 12 12 12 11 11 10 9 9 8 7 6 6 6 7 7 7 5 5 6 8 9 9 8 8 8 8 7 7 7 8 8 8 7 7 7 8 9 9 9 9 9 9 9 9 10 10 10 10
12 11 11 11 11 12 12 12 12 12 11 10 9 9 8 8 7 7 8 8 9 8 7 6 6 7 9 9 8 8 8 8 8 8 8 8 8 8 8 8 8 9 9 9 9 9 9 9 9 10 10 10 9 9
11 11 11 11 11 11 12 12 12 12 12 11 11 11 10 9 9 10 10 10 10 9 9 8 7 7 8 9 8 9 8 8 8 8 8 8 8 8 8 9 9 9 10 10 10 10 9 9 9 9 9 9 9 9
11 11 11 11 11 11 11 12 12 12 12 12 12 12 12 11 12 12 11 11 11 10 9 9 8 8 9 9 9 9 8 8 9 9 9 9 8 8 9 9 10 10 10 10 10 10 9 9 9 9 8 8 8 8
12 11 11 11 11 11 11 12 12 12 11 11 11 12 12 12 11 11 11 10 10 10 10 9 9 9 9 9 9 9 9 9 9 9 9 8 8 8 9 10 10 10 10 9 10 9 9 8 8 8 8 8 9 9
12 12 12 11 11 11 11 12 12 12 11 11 11 11 11 11 10 9 9 10 9 9 9 9 9 9 9 9 9 9 9 9 8 8 8 8 8 8 8 9 9 9 8 8 9 9 8 8 7 7 8 9 9 10
11 11 11 11 11 11 11 11 12 11 11 10 10 10 10 9 8 8 8 8 9 9 9 9 9 9 9 9 9 8 8 8 8 7 7 7 7 7 8 8 8 8 8 8 8 8 8 7 7 8 9 9 10 10
10 11 11 11 11 11 11 11 11 10 10 9 9 8 8 8 8 8 8 7 8 8 8 8 8 8 8 8 8 7 7 7 6 6 5 6 6 6 6 7 7 7 7 8 8 7 7 7 8 8 9 10 10 10
10 10 10 10 10 10 10 10 10 9 9 8 8 7 7 8 8 8 7 7 7 7 7 7 7 7 7 7 7 6 6 5 5 4 4 5 5 5 5 6 6 7 7 7 7 7 7 7 8 9 10 10 10 10
9 10 10 10 10 10 9 9 9 8 8 8 8 7 7 7 7 7 7 7 6 6 6 6 6 5 6 6 5 5 4 4 4 4 4 4 5 4 4 5 5 6 6 6 6 7 7 8 9 10 10 10 11 11
8 8 9 9 9 9 9 8 8 8 8 8 7 7 6 6 6 6 6 6 6 5 5 5 5 5 5 5 4 4 4 4 4 4 4 4 4 4 3 4 4 4 5 5 6 7 8 9 10 10 10 11 11 11
8 8 8 8 8 8 8 9 9 9 8 8 7 7 7 6 6 6 6 6 6 5 5 5 5 5 4 4 4 4 4 4 4 4 4 4 3 3 3 3 3 3 4 5 5 6 8 9 10 10 10 11 11 11
8 8 8 8 9 9 9 9 9 9 9 8 8 8 7 7 7 7 7 7 6 6 6 6 5 5 4 4 4 4 4 5 4 4 4 4 3 3 3 3 3 4 4 4 5 6 7 8 9 10 10 11 11 11
9 9 9 9 10 10 10 10 10 10 9 9 9 8 8 8 8 8 8 8 8 7 7 7 6 6 5 4 4 4 4 4 4 4 4 4 4 4 4 4 4 4 4 4 4 5 6 7 9 10 10 11 11 11
10 10 10 10 10 11 11 11 11 10 10 10 10 9 9 9 9 9 9 9 9 9 9 8 8 7 6 6 5 5 5 5 5 5 5 5 5 4 4 4 5 5 4 4 3 4 5 6 8 9 10 10 11 11
11 11 11 11 11 11 11 12 12 11 11 10 10 10 10 10 10 10 10 10 10 10 10 9 9 9 8 8 8 7 7 7 7 7 7 6 6 5 5 4 5 5 5 4 3 3 4 6 7 8 9 10 11 11
12 11 11 11 11 11 12 12 12 12 11 11 10 10 10 11 11 11 11 11 11 10 10 10 10 10 10 9 9 9 9 8 8 8 7 7 7 6 5 4 4 4 4 4 4 3 4 5 6 7 9 10 10 11
12 12 11 11 11 11 12 12 12 11 10 10 9 9 10 11 11 10 10 11 11 11 11 11 11 11 10 10 9 9 9 8 8 8 7 7 7 7 6 5 4 4 4 4 4 3 3 4 5 6 8 9 10 10
11 11 11 11 11 11 10 10 10 10 9 9 9 9 10 10 9 9 10 11 11 11 11 11 11 11 10 10 9 9 8 8 8 8 8 8 7 7 6 6 5 4 4 4 4 3 3 3 4 6 7 8 9 9
11 11 12 12 12 11 10 10 10 9 9 9 9 10 10 9 8 8 10 11 12 12 12 12 11 11 10 10 10 9 8 8 8 8 8 8 8 7 7 6 5 4 4 4 4 4 3 3 3 4 5 7 8 8
11 11 12 12 12 11 11 10 10 10 9 9 9 10 9 8 8 10 11 12 12 12 13 12 12 12 11 11 10 10 9 8 8 8 8 8 8 8 7 6 6 5 5 5 4 4 3 3 3 3 4 5 6 7
11 11 11 11 12 11 11 10 10 10 10 10 10 9 9 9 10 11 12 12 13 13 13 13 13 13 12 12 11 10 9 9 8 8 8 8 8 8 8 7 6 6 6 5 5 4 3 3 3 3 3 3 4 4
12 12 11 10 10 11 11 11 11 11 12 12 11 10 11 11 12 12 12 13 13 14 13 13 13 13 13 12 11 11 10 9 9 8 8 8 8 8 8 8 7 7 6 6 5 4 4 4 4 4 3 3 3 3
12 12 11 10 10 10 11 12 13 13 13 13 12 12 13 13 13 13 13 14 14 14 13 13 13 13 13 12 12 11 10 9 9 9 9 9 9 9 9 8 8 8 7 7 6 5 5 5 4 4 4 4 3 3
12 12 11 10 10 11 13 13 13 13 13 13 13 13 13 13 13 14 14 14 14 14 14 14 14 13 13 13 12 11 11 10 10 10 10 10 10 10 10 9 8 8 7 7 6 6 6 6 5 5 5 4 4 4
12 11 10 9 10 12 13 13 13 12 12 12 12 13 13 13 13 14 15 15 15 14 14 14 14 14 13 13 13 12 11 11 11 10 10 10 11 10 10 9 8 7 6 6 6 6 6 6 6 6 6 5 5 5
11 11 10 9 10 11 12 12 12 11 11 11 12 13 13 13 12 14 15 15 15 15 15 15 15 14 14 13 13 12 12 11 11 10 10 10 11 10 10 9 8 7 6 6 5 5 5 6 6 6 6 6 5 5